Weather History for KPVJ - June, 2013

Change the Weather History Date:

Sunday, June 23, 2013

  Actual Average (KADH) Record (KADH)
Temperature  
Mean Temperature 81 °F -  
Max Temperature 89 °F 89 °F 102 °F (1925)
Min Temperature 73 °F 68 °F 57 °F (1926)
Cooling Degree Days 16    
Growing Degree Days 31 (Base 50)    
Moisture  
Dew Point 67 °F    
Average Humidity 62    
Maximum Humidity 83    
Minimum Humidity 40    
Precipitation  
Precipitation 0.00 in - - ()
Sea Level Pressure  
Sea Level Pressure 29.92 in    
Wind  
Wind Speed 13 mph (SSE)    
Max Wind Speed 22 mph    
Max Gust Speed 29 mph    
Visibility 10 miles    
Events      
Averages and records for this station are not official NWS values.
T = Trace of Precipitation, MM = Missing Value Source: NWS Daily Summary

Daily Weather History Graph

Daily Weather History Graph

Search for Another Location

Airport or City:

Trip Planner

Search our weather history database for the weather conditions in past years. The results will help you decide how hot, cold, wet, or windy it might be!

Date:

Astronomy

Jun. 23, 2013 Rise Set
Actual Time 6:16 AM CDT 8:45 PM CDT
Civil Twilight 5:47 AM CDT 9:15 PM CDT
Nautical Twilight 5:10 AM CDT 9:51 PM CDT
Astronomical Twilight 4:30 AM CDT 10:32 PM CDT
Moon 9:02 PM CDT (6/23) 6:32 AM CDT (6/23)
Length of Visible Light 15h 28m
Length of Day
14h 29m
Full, 100% of the Moon is Illuminated
Jun 23
Full
Jun 29
Last Quarter
Jul 8
New
Jul 15
First Quarter
Jul 22
Full

Hourly Weather History & Observations

Time (CDT) Temp. Heat Index Dew Point Humidity Pressure Visibility Wind Dir Wind Speed Gust Speed Precip Events Conditions
12:15 AM 78.8 °F - 68.0 °F 69% 29.92 in 10.0 mi SSE 12.7 mph 20.7 mph N/A   Unknown
12:35 AM 78.8 °F - 68.0 °F 69% 29.92 in 10.0 mi SSE 11.5 mph 18.4 mph N/A   Unknown
12:55 AM 78.8 °F - 66.2 °F 65% 29.92 in 10.0 mi SSE 12.7 mph 19.6 mph N/A   Unknown
1:15 AM 78.8 °F - 66.2 °F 65% 29.92 in 10.0 mi SSE 11.5 mph 17.3 mph N/A   Unknown
1:35 AM 78.8 °F - 66.2 °F 65% 29.91 in 10.0 mi SSE 11.5 mph 18.4 mph N/A   Unknown
1:55 AM 77.0 °F - 66.2 °F 69% 29.91 in 10.0 mi SSE 12.7 mph 18.4 mph N/A   Unknown
2:15 AM 77.0 °F - 66.2 °F 69% 29.90 in 10.0 mi SSE 11.5 mph - N/A   Unknown
2:35 AM 77.0 °F - 66.2 °F 69% 29.90 in 10.0 mi SSE 9.2 mph - N/A   Unknown
2:55 AM 77.0 °F - 66.2 °F 69% 29.91 in 10.0 mi SSE 10.4 mph - N/A   Unknown
3:15 AM 77.0 °F - 66.2 °F 69% 29.91 in 10.0 mi SSE 9.2 mph - N/A   Unknown
3:35 AM 77.0 °F - 68.0 °F 74% 29.90 in 10.0 mi SSE 10.4 mph - N/A   Unknown
3:55 AM 75.2 °F - 68.0 °F 78% 29.91 in 10.0 mi SSE 9.2 mph - N/A   Unknown
4:15 AM 75.2 °F - 68.0 °F 78% 29.91 in 10.0 mi SSE 8.1 mph - N/A   Unknown
4:35 AM 75.2 °F - 68.0 °F 78% 29.91 in 10.0 mi SSE 8.1 mph - N/A   Unknown
4:55 AM 75.2 °F - 68.0 °F 78% 29.91 in 10.0 mi SSE 9.2 mph - N/A   Unknown
5:15 AM 75.2 °F - 68.0 °F 78% 29.91 in 10.0 mi SSE 8.1 mph - N/A   Unknown
5:35 AM 73.4 °F - 68.0 °F 83% 29.92 in 10.0 mi SSE 8.1 mph - N/A   Unknown
5:55 AM 73.4 °F - 68.0 °F 83% 29.92 in 10.0 mi SSE 6.9 mph - N/A   Unknown
6:15 AM 73.4 °F - 68.0 °F 83% 29.93 in 10.0 mi SSE 6.9 mph - N/A   Unknown
6:35 AM 73.4 °F - 68.0 °F 83% 29.93 in 10.0 mi South 5.8 mph - N/A   Unknown
6:55 AM 73.4 °F - 68.0 °F 83% 29.93 in 10.0 mi SSE 8.1 mph - N/A   Unknown
7:15 AM 73.4 °F - 68.0 °F 83% 29.93 in 10.0 mi SSE 9.2 mph - N/A   Unknown
7:35 AM 75.2 °F - 68.0 °F 78% 29.94 in 10.0 mi SSE 9.2 mph - N/A   Unknown
7:55 AM 77.0 °F - 69.8 °F 78% 29.94 in 10.0 mi SSE 12.7 mph 17.3 mph N/A   Unknown
8:15 AM 78.8 °F - 68.0 °F 69% 29.95 in 10.0 mi South 15.0 mph - N/A   Unknown
8:35 AM 78.8 °F - 68.0 °F 69% 29.96 in 10.0 mi South 17.3 mph 20.7 mph N/A   Unknown
8:55 AM 80.6 °F 83.2 °F 68.0 °F 65% 29.96 in 10.0 mi South 18.4 mph 23.0 mph N/A   Unknown
9:15 AM 80.6 °F 83.2 °F 68.0 °F 65% 29.96 in 10.0 mi South 16.1 mph 20.7 mph N/A   Unknown
9:35 AM 82.4 °F 85.4 °F 68.0 °F 62% 29.96 in 10.0 mi South 17.3 mph 25.3 mph N/A   Unknown
9:55 AM 82.4 °F 85.4 °F 68.0 °F 62% 29.96 in 10.0 mi South 17.3 mph 23.0 mph N/A   Unknown
10:15 AM 82.4 °F 85.4 °F 68.0 °F 62% 29.95 in 10.0 mi South 17.3 mph - N/A   Unknown
10:35 AM 84.2 °F 87.3 °F 68.0 °F 58% 29.95 in 10.0 mi South 18.4 mph 24.2 mph N/A   Unknown
10:55 AM 86.0 °F 89.4 °F 68.0 °F 55% 29.95 in 10.0 mi South 16.1 mph 24.2 mph N/A   Unknown
11:15 AM 86.0 °F 89.4 °F 68.0 °F 55% 29.95 in 10.0 mi South 15.0 mph 23.0 mph N/A   Unknown
11:35 AM 86.0 °F 89.4 °F 68.0 °F 55% 29.94 in 10.0 mi South 17.3 mph 24.2 mph N/A   Unknown
11:55 AM 86.0 °F 89.4 °F 68.0 °F 55% 29.94 in 10.0 mi South 18.4 mph 24.2 mph N/A   Unknown
12:15 PM 87.8 °F 91.4 °F 68.0 °F 52% 29.93 in 10.0 mi South 21.9 mph 27.6 mph N/A   Unknown
12:35 PM 87.8 °F 91.4 °F 68.0 °F 52% 29.93 in 10.0 mi South 21.9 mph 25.3 mph N/A   Unknown
12:55 PM 87.8 °F 91.4 °F 68.0 °F 52% 29.93 in 10.0 mi SSE 15.0 mph 23.0 mph N/A   Unknown
1:15 PM 87.8 °F 90.4 °F 66.2 °F 49% 29.93 in 10.0 mi South 17.3 mph 26.5 mph N/A   Unknown
1:35 PM 89.6 °F 93.4 °F 68.0 °F 49% 29.93 in 10.0 mi South 16.1 mph 25.3 mph N/A   Unknown
1:55 PM 89.6 °F 92.2 °F 66.2 °F 46% 29.92 in 10.0 mi South 19.6 mph 25.3 mph N/A   Unknown
2:15 PM 89.6 °F 93.4 °F 68.0 °F 49% 29.91 in 10.0 mi SSE 16.1 mph 21.9 mph N/A   Unknown
2:35 PM 89.6 °F 92.2 °F 66.2 °F 46% 29.91 in 10.0 mi SSE 20.7 mph 27.6 mph N/A   Unknown
2:55 PM 89.6 °F 93.4 °F 68.0 °F 49% 29.91 in 10.0 mi SSE 18.4 mph 27.6 mph N/A   Unknown
3:15 PM 89.6 °F 93.4 °F 68.0 °F 49% 29.91 in 10.0 mi SSE 17.3 mph 27.6 mph N/A   Unknown
3:35 PM 89.6 °F 93.4 °F 68.0 °F 49% 29.90 in 10.0 mi SSE 15.0 mph 28.8 mph N/A   Unknown
3:55 PM 89.6 °F 93.4 °F 68.0 °F 49% 29.90 in 10.0 mi SSE 17.3 mph 25.3 mph N/A   Unknown
4:15 PM 89.6 °F 92.2 °F 66.2 °F 46% 29.90 in 10.0 mi SSE 19.6 mph 27.6 mph N/A   Unknown
4:35 PM 89.6 °F 91.1 °F 64.4 °F 43% 29.89 in 10.0 mi SSE 18.4 mph 27.6 mph N/A   Unknown
4:55 PM 89.6 °F 92.2 °F 66.2 °F 46% 29.89 in 10.0 mi SSE 16.1 mph 23.0 mph N/A   Unknown
5:15 PM 89.6 °F 91.1 °F 64.4 °F 43% 29.89 in 10.0 mi South 16.1 mph 24.2 mph N/A   Unknown
5:35 PM 89.6 °F 91.1 °F 64.4 °F 43% 29.88 in 10.0 mi SSE 18.4 mph 25.3 mph N/A   Unknown
5:55 PM 89.6 °F 90.1 °F 62.6 °F 40% 29.88 in 10.0 mi South 20.7 mph 26.5 mph N/A   Unknown
6:15 PM 89.6 °F 91.1 °F 64.4 °F 43% 29.88 in 10.0 mi SSE 17.3 mph 23.0 mph N/A   Unknown
6:35 PM 87.8 °F 90.4 °F 66.2 °F 49% 29.87 in 10.0 mi SSE 16.1 mph 23.0 mph N/A   Unknown
6:55 PM 87.8 °F 90.4 °F 66.2 °F 49% 29.87 in 10.0 mi SSE 16.1 mph 23.0 mph N/A   Unknown
7:15 PM 87.8 °F 89.4 °F 64.4 °F 46% 29.88 in 10.0 mi SSE 12.7 mph 24.2 mph N/A   Unknown
7:35 PM 86.0 °F 89.4 °F 68.0 °F 55% 29.87 in 10.0 mi SSE 12.7 mph - N/A   Unknown
7:55 PM 86.0 °F 89.4 °F 68.0 °F 55% 29.88 in 10.0 mi SSE 16.1 mph 19.6 mph N/A   Unknown
8:15 PM 86.0 °F 88.2 °F 66.2 °F 51% 29.88 in 10.0 mi SSE 10.4 mph 18.4 mph N/A   Unknown
8:35 PM 82.4 °F 84.6 °F 66.2 °F 58% 29.88 in 10.0 mi SSE 10.4 mph - N/A   Unknown
8:55 PM 82.4 °F 85.4 °F 68.0 °F 62% 29.88 in 10.0 mi SSE 11.5 mph - N/A   Unknown
9:15 PM 82.4 °F 85.4 °F 68.0 °F 62% 29.89 in 10.0 mi SSE 10.4 mph - N/A   Unknown
9:35 PM 80.6 °F 83.2 °F 68.0 °F 65% 29.90 in 10.0 mi SSE 11.5 mph - N/A   Unknown
9:55 PM 80.6 °F 83.2 °F 68.0 °F 65% 29.91 in 10.0 mi SSE 8.1 mph - N/A   Unknown
10:15 PM 80.6 °F 83.2 °F 68.0 °F 65% 29.92 in 10.0 mi SSE 9.2 mph - N/A   Unknown
10:35 PM 80.6 °F 83.2 °F 68.0 °F 65% 29.92 in 10.0 mi SSE 12.7 mph 18.4 mph N/A   Unknown
10:55 PM 80.6 °F 83.2 °F 68.0 °F 65% 29.93 in 10.0 mi SSE 11.5 mph 17.3 mph N/A   Unknown
11:15 PM 78.8 °F - 68.0 °F 69% 29.93 in 10.0 mi SSE 12.7 mph - N/A   Unknown
11:35 PM 78.8 °F - 68.0 °F 69% 29.93 in 10.0 mi SSE 12.7 mph - N/A   Unknown
11:55 PM 78.8 °F - 68.0 °F 69% 29.94 in 10.0 mi SSE 12.7 mph - N/A   Unknown